EW2441 Weather Reports


time (UTC)temp
C
wind
direction
speed
KPH
gust
KPH
rain 1hr
cm
rain 24hr
cm
rain mn
cm
humidity
%
barometer
mb
20260504010005 12 198 1.6 6.4 0.00 0.00 0.00 45 1011.9
20260504004504 12 195 3.2 8.0 0.00 0.00 0.00 44 1011.8
20260504003005 13 227 3.2 16.1 0.00 0.00 0.00 43 1011.8
20260504000005 13 219 4.8 14.5 0.00 0.00 0.00 42 1011.8
20260503233005 14 254 4.8 14.5 0.00 0.00 0.00 41 1012.0
20260503231504 14 246 4.8 19.3 0.00 0.00 0.00 41 1012.1
20260503224504 14 228 6.4 20.9 0.00 0.00 0.00 39 1012.1
20260503221504 15 254 6.4 25.7 0.00 0.00 0.00 39 1012.2
20260503220005 15 265 8.0 20.9 0.00 0.00 0.00 38 1012.3
20260503214504 15 245 8.0 43.5 0.00 0.00 0.00 38 1012.2
20260503210005 15 205 6.4 22.5 0.00 0.00 0.00 38 1012.2
20260503203005 15 248 6.4 22.5 0.00 0.00 0.00 38 1012.4
20260503201504 15 244 8.0 24.1 0.00 0.00 0.00 36 1012.6
20260503200004 15 263 8.0 20.9 0.00 0.00 0.00 36 1012.7
20260503193005 16 245 8.0 20.9 0.00 0.00 0.00 35 1013.3
20260503191504 16 238 8.0 24.1 0.00 0.00 0.00 37 1013.4
20260503190005 16 224 8.0 22.5 0.00 0.00 0.00 35 1013.6
20260503184504 15 239 8.0 24.1 0.00 0.00 0.00 36 1013.7
20260503183005 15 251 8.0 24.1 0.00 0.00 0.00 39 1013.8
20260503181505 15 230 8.0 22.5 0.00 0.00 0.00 41 1014.0
20260503180005 15 270 8.0 20.9 0.00 0.00 0.00 41 1014.2
20260503174504 15 259 8.0 25.7 0.00 0.00 0.00 40 1014.4
20260503173005 15 243 6.4 24.1 0.00 0.00 0.00 38 1014.4
20260503071504 0 237 0.0 1.6 0.00 0.15 0.00 91 1015.7
20260503054503 1 0 0.0 0.0 0.00 0.25 0.00 85 1016.0
20260503053004 2 0 0.0 0.0 0.00 0.25 0.00 83 1016.1
20260503051503 2 0 0.0 0.0 0.00 0.28 0.00 82 1016.1
20260503044504 3 211 0.0 4.8 0.00 0.28 0.00 78 1016.2
20260503043004 3 210 0.0 1.6 0.00 0.28 0.00 77 1016.2
20260503041503 3 203 0.0 3.2 0.00 0.28 0.00 76 1016.2
20260503040006 3 220 1.6 3.2 0.00 0.28 0.00 76 1016.3
20260503034503 3 227 0.0 6.4 0.00 0.28 0.28 77 1016.3
20260503033005 3 216 0.0 4.8 0.00 0.28 0.28 80 1016.4
20260503031504 3 0 0.0 0.0 0.00 0.28 0.28 83 1016.4
20260503030005 3 0 0.0 0.0 0.00 0.28 0.28 83 1016.6
20260503024504 3 0 0.0 0.0 0.00 0.28 0.28 83 1016.6
20260503023005 3 0 0.0 0.0 0.00 0.28 0.28 81 1016.8
20260503021504 3 0 0.0 0.0 0.00 0.28 0.28 80 1016.8
20260503020004 3 0 0.0 0.0 0.00 0.28 0.28 79 1016.7
20260503014504 4 0 0.0 0.0 0.00 0.28 0.28 78 1016.7
20260503013004 4 0 0.0 0.0 0.00 0.28 0.28 77 1016.6
20260503011503 4 0 0.0 0.0 0.00 0.28 0.28 74 1016.6